Location: Newark
(41.8922°N, 9.0050°E)
Time: 01:18:19
(UTC+00:00)

Envisat - Pass Details

Date: 31 January 2020
Orbit: 764 x 766 km, 98.1° (Epoch: 25 February)

Event Time Altitude Azimuth Distance (km) Brightness Sun altitude
Rises 18:44:58 0° 219° (SW) 3,221 6.8 -23.9°
Reaches altitude 10° 18:48:58 10° 251° (WSW) 2,302 6.4 -24.7°
Maximum altitude 18:50:45 12° 272° (W) 2,185 6.4 -25.0°
Drops below altitude 10° 18:52:32 10° 293° (WNW) 2,307 6.3 -25.3°
Sets 18:56:34 0° 325° (NW) 3,240 6.7 -26.1°
